Tracking 18980 objects as of 21-Feb-2018
HD Live streaming from Space Station
objects crossing your sky now

COSMOS 2494 (SKRL 756)

Track COSMOS 2494 (SKRL 756) now!
10-day predictions
COSMOS 2494 (SKRL 756) is classified as:


NORAD ID: 39491
Int'l Code: 2013-078B
Perigee: 591.7 km
Apogee: 620.7 km
Inclination: 82.4 °
Period: 96.7 minutes
Semi major axis: 6977 km
RCS: Unknown
Launch date: December 28, 2013
Source: Commonwealth of Independent States (former USSR) (CIS)
Launch site: PLESETSK MISSILE AND SPACE COMPLEX (PKMTR)
aabbcc
Your satellite tracking list
Your tracking list is empty




NASA's NSSDC Master Catalog

Two Line Element Set (TLE):
1 39491U 13078B   18051.89516746 +.00000245 +00000-0 +22996-4 0  9999
2 39491 082.4193 301.2058 0020744 275.9663 083.9191 14.89641667225359
Source of the keplerian elements: AFSPC